Météo Nord-Pas-de-Calais   La météo au plus près de chez vous

Station météorologique

Observations météo à Quimper (29216)

29216001 82 m Dernier relevé à 06:06
18.7°C
Humidité 92 % Vent 8.6 km/h 1020.2 hPa

Journée consultée

Vendredi 4 Septembre 2026

Synthèse de la journée

Périodes de référence en UTC

Température maximale

23.8°C

à 14:36

06h 06h

Température minimale

18.6°C

à 04:54

18h 18h

Rafale maximale

22 km/h

à 02:42

00h 00h

Précipitations

0 mm

Cumul quotidien

06h 06h

Ensoleillement

0h 0 mins

Durée quotidienne

00h 00h

Graphiques de la journée

Heure locale Réduire

Données détaillées

Relevés météo

Pas de 6 minutes Afficher les relevés infra-horaires
Relevés météo détaillés à Quimper pour le Vendredi 4 Septembre 2026
Heure Température °C Point de rosée °C Humidité % Vent moyen (raf.), km/h Précipitations mm Température à 10 cm °C Température à 20 cm °C Température à 50 cm °C Visibilité m État du sol   Ensoleillement min Rayonnement global W/m² Pression hPa Nébulosité Octas
06:06 18.7 °C 17.4 °C 92 % 10 km/h (15 km/h) 0 mm0 mm 20.4 °C 20.2 °C 19.3 °C 60000 m 0   0 min 0 W/m² 1019.9 hPa
06:00 18.7 °C 17.4 °C 92 % 9 km/h (14 km/h) 0 mm0 mm 20.4 °C 20.2 °C 19.3 °C 60000 m 0   0 min 0 W/m² 1019.9 hPa 8 Octas
05:54 18.7 °C 17.4 °C 92 % 9 km/h (15 km/h) 0 mm0 mm 20.4 °C 20.3 °C 19.3 °C 60000 m 0   0 min 0 W/m² 1020 hPa
05:48 18.7 °C 17.4 °C 92 % 8 km/h (15 km/h) 0 mm0 mm 20.4 °C 20.3 °C 19.3 °C 60000 m 0   0 min 0 W/m² 1020 hPa
05:42 18.7 °C 17.4 °C 92 % 9 km/h (15 km/h) 0 mm0 mm 20.4 °C 20.3 °C 19.3 °C 60000 m 0   0 min 0 W/m² 1019.9 hPa
05:36 18.6 °C 17.3 °C 92 % 9 km/h (13 km/h) 0 mm0 mm 20.4 °C 20.3 °C 19.3 °C 60000 m 0   0 min 0 W/m² 1019.9 hPa
05:30 18.6 °C 17.3 °C 92 % 8 km/h (14 km/h) 0 mm0 mm 20.4 °C 20.3 °C 19.3 °C 60000 m 0   0 min 0 W/m² 1020 hPa
05:24 18.6 °C 17.3 °C 92 % 9 km/h (14 km/h) 0 mm0 mm 20.5 °C 20.3 °C 19.3 °C 60000 m 0   0 min 0 W/m² 1020 hPa
05:18 18.6 °C 17.3 °C 92 % 10 km/h (14 km/h) 0 mm0 mm 20.5 °C 20.3 °C 19.3 °C 60000 m 0   0 min 0 W/m² 1020 hPa
05:12 18.6 °C 17.3 °C 92 % 10 km/h (14 km/h) 0 mm0 mm 20.5 °C 20.3 °C 19.3 °C 60000 m 0   0 min 0 W/m² 1020.1 hPa
05:06 18.6 °C 17.3 °C 92 % 9 km/h (13 km/h) 0 mm0 mm 20.5 °C 20.3 °C 19.3 °C 60000 m 0   0 min 0 W/m² 1020.2 hPa
05:00 18.6 °C 17.1 °C 91 % 8 km/h (12 km/h) 0 mm0 mm 20.5 °C 20.3 °C 19.3 °C 60000 m 0   0 min 0 W/m² 1020.1 hPa 8 Octas
04:54 18.6 °C 17.1 °C 91 % 9 km/h (12 km/h) 0 mm0 mm 20.5 °C 20.3 °C 19.3 °C 60000 m 0   0 min 0 W/m² 1020.2 hPa
04:48 18.7 °C 17.2 °C 91 % 9 km/h (12 km/h) 0 mm0 mm 20.5 °C 20.3 °C 19.3 °C 60000 m 0   0 min 0 W/m² 1020.2 hPa
04:42 18.7 °C 17 °C 90 % 9 km/h (13 km/h) 0 mm0 mm 20.5 °C 20.4 °C 19.3 °C 60000 m 0   0 min 0 W/m² 1020.3 hPa
04:36 18.7 °C 17 °C 90 % 7 km/h (13 km/h) 0 mm0 mm 20.5 °C 20.3 °C 19.3 °C 60000 m 0   0 min 0 W/m² 1020.3 hPa
04:30 18.7 °C 17 °C 90 % 6 km/h (11 km/h) 0 mm0 mm 20.5 °C 20.3 °C 19.3 °C 60000 m 0   0 min 0 W/m² 1020.3 hPa
04:24 18.7 °C 16.8 °C 89 % 8 km/h (11 km/h) 0 mm0 mm 20.6 °C 20.3 °C 19.2 °C 60000 m 0   0 min 0 W/m² 1020.3 hPa
04:18 18.7 °C 16.8 °C 89 % 8 km/h (12 km/h) 0 mm0 mm 20.5 °C 20.3 °C 19.2 °C 60000 m 0   0 min 0 W/m² 1020.3 hPa
04:12 18.8 °C 16.8 °C 88 % 9 km/h (14 km/h) 0 mm0 mm 20.6 °C 20.4 °C 19.3 °C 60000 m 0   0 min 0 W/m² 1020.3 hPa
04:06 18.8 °C 16.8 °C 88 % 10 km/h (15 km/h) 0 mm0 mm 20.6 °C 20.4 °C 19.2 °C 60000 m 0   0 min 0 W/m² 1020.3 hPa
04:00 18.8 °C 16.8 °C 88 % 9 km/h (14 km/h) 0 mm0 mm 20.6 °C 20.4 °C 19.2 °C 60000 m 0   0 min 0 W/m² 1020.3 hPa 8 Octas
03:54 18.8 °C 16.8 °C 88 % 10 km/h (15 km/h) 0 mm0 mm 20.6 °C 20.4 °C 19.2 °C 60000 m 0   0 min 0 W/m² 1020.3 hPa
03:48 18.8 °C 16.8 °C 88 % 10 km/h (16 km/h) 0 mm0 mm 20.6 °C 20.3 °C 19.2 °C 60000 m 0   0 min 0 W/m² 1020.4 hPa
03:42 18.7 °C 16.8 °C 89 % 11 km/h (19 km/h) 0 mm0 mm 20.6 °C 20.4 °C 19.2 °C 60000 m 0   0 min 0 W/m² 1020.4 hPa
03:36 18.8 °C 16.9 °C 89 % 13 km/h (21 km/h) 0 mm0 mm 20.7 °C 20.4 °C 19.3 °C 60000 m 0   0 min 0 W/m² 1020.4 hPa
03:30 18.8 °C 16.9 °C 89 % 12 km/h (20 km/h) 0 mm0 mm 20.6 °C 20.4 °C 19.2 °C 60000 m 0   0 min 0 W/m² 1020.5 hPa
03:24 18.8 °C 16.8 °C 88 % 11 km/h (20 km/h) 0 mm0 mm 20.7 °C 20.4 °C 19.2 °C 60000 m 0   0 min 0 W/m² 1020.5 hPa
03:18 18.8 °C 16.9 °C 89 % 11 km/h (17 km/h) 0 mm0 mm 20.7 °C 20.4 °C 19.3 °C 60000 m 0   0 min 0 W/m² 1020.6 hPa
03:12 18.8 °C 17.1 °C 90 % 11 km/h (17 km/h) 0 mm0 mm 20.7 °C 20.4 °C 19.2 °C 60000 m 0   0 min 0 W/m² 1020.6 hPa
03:06 18.8 °C 17.1 °C 90 % 10 km/h (17 km/h) 0 mm0 mm 20.7 °C 20.4 °C 19.2 °C 60000 m 0   0 min 0 W/m² 1020.7 hPa
03:00 18.8 °C 17.1 °C 90 % 12 km/h (20 km/h) 0 mm0 mm 20.7 °C 20.4 °C 19.2 °C 60000 m 0   0 min 0 W/m² 1020.8 hPa 8 Octas
02:54 18.8 °C 17.3 °C 91 % 14 km/h (20 km/h) 0 mm0 mm 20.7 °C 20.4 °C 19.2 °C 60000 m 0   0 min 0 W/m² 1020.8 hPa
02:48 18.8 °C 17.3 °C 91 % 14 km/h (22 km/h) 0 mm0 mm 20.7 °C 20.4 °C 19.2 °C 60000 m 0   0 min 0 W/m² 1020.9 hPa
02:42 18.8 °C 17.5 °C 92 % 13 km/h (22 km/h) 0 mm0 mm 20.7 °C 20.4 °C 19.2 °C 60000 m 0   0 min 0 W/m² 1021 hPa
02:36 18.8 °C 17.5 °C 92 % 13 km/h (21 km/h) 0 mm0 mm 20.7 °C 20.4 °C 19.2 °C 60000 m 0   0 min 0 W/m² 1021.1 hPa
02:30 18.8 °C 17.5 °C 92 % 12 km/h (20 km/h) 0 mm0 mm 20.7 °C 20.4 °C 19.2 °C 60000 m 0   0 min 0 W/m² 1021.2 hPa
02:24 18.8 °C 17.6 °C 93 % 13 km/h (20 km/h) 0 mm0 mm 20.8 °C 20.4 °C 19.2 °C 60000 m 0   0 min 0 W/m² 1021.3 hPa
02:18 18.8 °C 17.6 °C 93 % 11 km/h (20 km/h) 0 mm0 mm 20.8 °C 20.4 °C 19.2 °C 60000 m 0   0 min 0 W/m² 1021.4 hPa
02:12 18.8 °C 17.8 °C 94 % 11 km/h (19 km/h) 0 mm0 mm 20.8 °C 20.4 °C 19.2 °C 60000 m 0   0 min 0 W/m² 1021.4 hPa
02:06 18.8 °C 17.8 °C 94 % 12 km/h (19 km/h) 0 mm0 mm 20.8 °C 20.4 °C 19.2 °C 60000 m 0   0 min 0 W/m² 1021.5 hPa
02:00 18.7 °C 17.9 °C 95 % 13 km/h (22 km/h) 0 mm0 mm 20.8 °C 20.4 °C 19.2 °C 58750 m 0   0 min 0 W/m² 1021.5 hPa 8 Octas
01:54 18.8 °C 18 °C 95 % 13 km/h (22 km/h) 0 mm0 mm 20.8 °C 20.4 °C 19.2 °C 18270 m 0   0 min 0 W/m² 1021.6 hPa
01:48 18.8 °C 18 °C 95 % 12 km/h (21 km/h) 0 mm0 mm 20.8 °C 20.5 °C 19.2 °C 18270 m 0   0 min 0 W/m² 1021.6 hPa
01:42 18.8 °C 18 °C 95 % 11 km/h (20 km/h) 0 mm0 mm 20.8 °C 20.5 °C 19.2 °C 49660 m 0   0 min 0 W/m² 1021.7 hPa
01:36 18.8 °C 18 °C 95 % 11 km/h (16 km/h) 0 mm0 mm 20.9 °C 20.5 °C 19.2 °C 19830 m 0   0 min 0 W/m² 1021.7 hPa
01:30 18.8 °C 18 °C 95 % 11 km/h (16 km/h) 0 mm0 mm 20.8 °C 20.4 °C 19.2 °C 13230 m 0   0 min 0 W/m² 1021.7 hPa
01:24 18.8 °C 18 °C 95 % 12 km/h (19 km/h) 0 mm0 mm 20.9 °C 20.4 °C 19.2 °C 11990 m 0   0 min 0 W/m² 1021.7 hPa
01:18 18.8 °C 18 °C 95 % 12 km/h (19 km/h) 0 mm0 mm 20.9 °C 20.5 °C 19.2 °C 18760 m 0   0 min 0 W/m² 1021.8 hPa
01:12 18.8 °C 17.8 °C 94 % 11 km/h (17 km/h) 0 mm0 mm 20.9 °C 20.5 °C 19.2 °C 48580 m 0   0 min 0 W/m² 1021.8 hPa
01:06 18.8 °C 17.8 °C 94 % 11 km/h (17 km/h) 0 mm0 mm 20.9 °C 20.5 °C 19.2 °C 53300 m 0   0 min 0 W/m² 1021.8 hPa
01:00 18.8 °C 17.8 °C 94 % 11 km/h (17 km/h) 0 mm0 mm 20.9 °C 20.5 °C 19.2 °C 52120 m 0   0 min 0 W/m² 1021.9 hPa 8 Octas
00:54 18.8 °C 17.8 °C 94 % 11 km/h (17 km/h) 0 mm0 mm 20.9 °C 20.5 °C 19.2 °C 52480 m 0   0 min 0 W/m² 1021.9 hPa
00:48 18.9 °C 17.9 °C 94 % 12 km/h (20 km/h) 0 mm0 mm 20.9 °C 20.5 °C 19.1 °C 50790 m 0   0 min 0 W/m² 1021.9 hPa
00:42 18.9 °C 17.9 °C 94 % 12 km/h (17 km/h) 0 mm0 mm 20.9 °C 20.5 °C 19.2 °C 54100 m 0   0 min 0 W/m² 1021.9 hPa
00:36 18.9 °C 17.9 °C 94 % 11 km/h (17 km/h) 0 mm0 mm 21 °C 20.5 °C 19.2 °C 58580 m 0   0 min 0 W/m² 1022 hPa
00:30 18.8 °C 17.8 °C 94 % 10 km/h (15 km/h) 0 mm0 mm 21 °C 20.5 °C 19.2 °C 59630 m 0   0 min 0 W/m² 1022 hPa
00:24 18.8 °C 17.8 °C 94 % 10 km/h (14 km/h) 0 mm0 mm 21 °C 20.5 °C 19.2 °C 60000 m 0   0 min 0 W/m² 1022 hPa
00:18 18.8 °C 17.8 °C 94 % 10 km/h (15 km/h) 0 mm0 mm 21 °C 20.5 °C 19.2 °C 60000 m 0   0 min 0 W/m² 1022.1 hPa
00:12 18.8 °C 17.8 °C 94 % 10 km/h (15 km/h) 0 mm0 mm 21 °C 20.5 °C 19.2 °C 60000 m 0   0 min 0 W/m² 1022.2 hPa
00:06 18.8 °C 17.8 °C 94 % 11 km/h (15 km/h) 0 mm0 mm 21 °C 20.5 °C 19.2 °C 56230 m 0   0 min 0 W/m² 1022.2 hPa
00:00 18.9 °C 17.9 °C 94 % 10 km/h (14 km/h) 0 mm0 mm 21 °C 20.5 °C 19.2 °C 51970 m 0   0 min 0 W/m² 1022.2 hPa 8 Octas

Données via Météo-France

Relevés météo à Quimper

Cette page rassemble les observations de la station de Quimper : température, humidité, vent, précipitations et pression atmosphérique. Les graphiques facilitent le suivi de la journée, tandis que le tableau donne accès aux mesures horaires et infra-horaires disponibles.

Pour replacer ces mesures dans leur contexte, consultez la climatologie de Quimper ainsi que ses normales et records. Retrouvez aussi la carte des observations météo en temps réel.